Regional Weather Roundup
Issued by NWS Burlington, VT

Home | Current Version | Previous Version | Text Only | Print | Product List | Glossary On
Versions: 1 2 3 4 5 6 7 8 9 10 11 12 13 14 15 16 17 18 19 20 21 22 23 24 25 26 27 28 29 30 31 32 33 34 35 36 37 38 39 40 41 42 43 44 45 46 47 48 49 50
877
ASUS41 KBTV 090610
RWRBTV
VERMONT REGIONAL WEATHER ROUNDUP
NATIONAL WEATHER SERVICE BURLINGTON VT
100 AM EST FRI DEC 09 2016

NOTE: "FAIR" INDICATES FEW OR NO CLOUDS BELOW 12,000 FEET WITH NO
SIGNIFICANT WEATHER AND/OR OBSTRUCTIONS TO VISIBILITY.

* THESE REPORTS ARE NOT UNDER NWS QUALITY CONTROL AND/OR DO NOT
  REPORT WEATHER SUCH AS PRECIPITATION AND FOG.

VTZ001>019-090700-
_____VERMONT_____


CITY           SKY/WX    TMP DP  RH WIND       PRES   REMARKS
BURLINGTON     CLOUDY    31  22  69 NW14G24   29.79R WCI  21
6HR MIN TEMP:  31; 6HR MAX TEMP:  35; 6HR PCP: TRACE;

MONTPELIER     CLOUDY    28  19  69 SW9       29.75S WCI  19
6HR MIN TEMP:  27; 6HR MAX TEMP:  30; 6HR PCP: TRACE;

MORRISVILLE    LGT SNOW  27  23  85 SW5       29.75S FOG     WCI  22
6HR MIN TEMP:  27; 6HR MAX TEMP:  32; 6HR PCP:  0.02;

ST. JOHNSBURY*   N/A     29  23  78 MISG      29.71S
6HR MIN TEMP:  29; 6HR MAX TEMP:  31; 6HR PCP:  0.01;

LYNDONVILLE*   LGT SNOW  26  24  93 S8        29.70F WCI  17
6HR MIN TEMP:  26; 6HR MAX TEMP:  28;

MIDDLEBURY*    CLOUDY    32  21  65 SW7       29.79S WCI  25
6HR MIN TEMP:  32; 6HR MAX TEMP:  33;

RUTLAND*       FLURRIES  29  19  66 SW13G24   29.80S WCI  19
6HR MIN TEMP:  28; 6HR MAX TEMP:  31; 6HR PCP: TRACE;

SPRINGFIELD    MOCLDY    29  16  58 SW7       29.79F WCI  22
6HR MIN TEMP:  27; 6HR MAX TEMP:  33; 6HR PCP: TRACE;

HIGHGATE*      CLOUDY    28  22  78 W9        29.78R WCI  19
6HR MIN TEMP:  28; 6HR MAX TEMP:  33;

NEWPORT*       LGT SNOW  26  24  90 W10G17    29.70R WCI  16
6HR MIN TEMP:  26; 6HR MAX TEMP:  30;

BENNINGTON     CLOUDY    30  14  51 W7        29.85S WCI  23
6HR MIN TEMP:  29; 6HR MAX TEMP:  33;

SUTTON*          N/A     23 N/A N/A MISG        N/A

_____LAKE CHAMPLAIN_____


CITY           SKY/WX    TMP DP  RH WIND       PRES   REMARKS
BURTON ISLAND*   N/A     32  27  80 W20         N/A  WCI  20
COLCHESTER RF*   N/A     32  25  74 NW24        N/A  WCI  19

$$

NYZ007-026>031-035-052-083-087-090700-
_____NORTHERN NEW YORK_____


CITY           SKY/WX    TMP DP  RH WIND       PRES   REMARKS
PLATTSBURGH    CLOUDY    30  19  63 NW9G21    29.80R WCI  22
6HR MIN TEMP:  30; 6HR MAX TEMP:  33; 6HR PCP: TRACE;

SARANAC LAKE   LGT SNOW  21  17  84 VRB6      29.74R FOG     WCI  13
6HR MIN TEMP:  22; 6HR MAX TEMP:  26; 6HR PCP: TRACE;

MASSENA        PTCLDY    27  17  66 W17G23    29.88R WCI  14
6HR MIN TEMP:  27; 6HR MAX TEMP:  33; 6HR PCP: TRACE;

OGDENSBURG*    PTCLDY    27  18  69 NW9       29.89R WCI  17
6HR MIN TEMP:  27; 6HR MAX TEMP:  33;

POTSDAM*       CLEAR     27  21  80 NW7       29.88R WCI  19
WATERTOWN      CLEAR     27  19  72 NW17      29.93R WCI  14
6HR MIN TEMP:  27; 6HR MAX TEMP:  33; 6HR PCP: TRACE;

FT DRUM        CLOUDY    26  22  84 W9        29.88R WCI  17
6HR MIN TEMP:  26; 6HR MAX TEMP:  31; 6HR PCP: TRACE;

ALBANY         MOCLDY    32  15  49 W13       29.89F WCI  22
6HR MIN TEMP:  30; 6HR MAX TEMP:  33;

GLENS FALLS    CLOUDY    31  19  61 SW9       29.85S WCI  23
6HR MIN TEMP:  31; 6HR MAX TEMP:  36;


$$
NHZ002-005-011-090700-
_____NEW HAMPSHIRE_____


CITY           SKY/WX    TMP DP  RH WIND       PRES   REMARKS
LEBANON        CLOUDY    31  21  66 S9        29.75F WCI  23
6HR MIN TEMP:  29; 6HR MAX TEMP:  33;

KEENE          CLEAR     30  18  60 W8        29.82F WCI  22
6HR MIN TEMP:  29; 6HR MAX TEMP:  33;

PLYMOUTH         N/A     29  19  68 CALM      29.74F
6HR MIN TEMP:  29; 6HR MAX TEMP:  33;

WHITEFIELD     LGT SNOW  27  21  78 SW6       29.70S WCI  20
6HR MIN TEMP:  27; 6HR MAX TEMP:  30; 6HR PCP: TRACE;


$$

_____REGIONAL QUEBEC LOCATIONS_____


CITY           SKY/WX    TMP DP  RH WIND       PRES   REMARKS
MONTREAL       PTCLDY    27  18  69 W16G23    29.79R WCI  14
QUEBEC CITY    FLURRIES  25  19  80 W17       29.62F WCI  11
SHERBROOKE     LGT SNOW  25  23  93 NW16G25   29.66R VSB 1   WCI  12

_____REGIONAL ONTARIO LOCATIONS_____


CITY           SKY/WX    TMP DP  RH WIND       PRES   REMARKS
OTTAWA         PTCLDY    25  18  74 W14G24    29.86R WCI  13

______KEY______
VSB  - VISIBILITY IN MILES
WCI  - WIND CHILL INDEX
HX   - HEAT INDEX
$$
NNNN




USA.gov is the U.S. government's official web portal to all federal, state and local government web resources and services.